Simultaneous Nadir Overpasses (SNOs) Predictions

Prediction of SNOs between NOAA-20 and AQUA Satellite Orbit:

Table of predicted SNOs for the next 14.0 days since TLE Epoch: 10/11/2025
Index Date (NOAA-20) Time (NOAA-20) Lat,Lon (NOAA-20) SZA (NOAA-20 ) Date (AQUA) Time (AQUA) Lat,Lon (AQUA) SZA (AQUA ) Distance(km) Time Diff (sec)
1 10/13/2025 06:48:57 -81.26,-165.80 86.55 10/13/2025 06:50:08 -81.26,-165.76 86.59 0.64 71
2 10/13/2025 07:39:41 81.26, 1.83 93.43 10/13/2025 07:39:25 81.26, 1.87 93.43 0.81 16
3 10/15/2025 16:19:48 -81.25, 51.96 85.75 10/15/2025 16:20:28 -81.26, 51.80 85.75 2.99 40
4 10/15/2025 17:10:32 81.25,-140.41 94.22 10/15/2025 17:09:45 81.26,-140.60 94.28 3.38 47
5 10/18/2025 01:50:41 -81.26, -91.09 84.85 10/18/2025 01:50:48 -81.25, -91.03 84.87 1.61 7
6 10/20/2025 10:30:48 81.26, -41.12 95.98 10/20/2025 10:31:48 81.25, -41.22 95.96 2.15 60
7 10/20/2025 11:21:32 -81.25, 126.59 84.06 10/20/2025 11:21:06 -81.25, 126.52 84.04 1.08 26
8 10/22/2025 20:01:40 81.26, 176.13 96.82 10/22/2025 20:02:05 81.25, 176.32 96.77 3.38 25



Historial Predications of SNOs between NOAA-20 and AQUA
